Location: Ottawa
(45.4167°N, 75.7000°W)
Time: 17:28:50
(UTC-04:00)

Vanguard 1 Rocket - Visible Passes

Search period start: 21 July 2018 00:00
Search period end: 31 July 2018 00:00
Orbit: 652 x 4225 km, 34.3° (Epoch: 20 July)

Date Brightness Start Highest point End Pass type
(mag) Time Alt. Az. Time Alt. Az. Time Alt. Az.
22 Jul 11.9 04:29:02 10° SE 04:35:15 11° SE 04:41:07 10° ESE visible
24 Jul 11.7 04:24:08 10° SSE 04:37:19 17° SE 04:49:09 10° ESE visible
26 Jul 11.6 04:22:29 10° S 04:39:17 22° SE 04:54:16 10° E visible
27 Jul 11.7 03:17:00 10° SSE 03:26:27 13° SE 03:35:39 10° ESE visible
28 Jul 11.5 04:22:05 10° S 04:41:11 28° SE 04:58:23 10° E visible
29 Jul 11.5 03:14:01 10° SSE 03:28:11 18° SE 03:42:06 10° E visible
30 Jul 11.4 04:22:28 10° SSW 04:43:02 34° SE 05:01:57 10° E visible
